This demonstration page uses our WeatherBlox Daily Observations layout. Learn more.

Left ArrowRight Arrow

39.01783, -85.05884

Hourly Observations for August 6, 2017

Temp ( °F °C ) Dew Point ( °F °C ) Humidity (%) Winds ( mph kmh ) Pressure ( in mb ) Visibility ( mi km ) Precip ( " mm )
12:52 am 00:52 Cloudy 65 18.3 60 15.6 84 84 Calm 30.05 1018 10 16 0.00 0.00
1:52 am 01:52 Cloudy 67 19.4 59 15 76 76 Calm 30.05 1018 10 16 0.00 0.00
2:52 am 02:52 Cloudy 66 18.9 59 15 78 78 SSE 3 6 30.06 1018 10 16 0.00 0.00
3:52 am 03:52 Cloudy 65 18.3 60 15.6 84 84 Calm 30.05 1018 10 16 0.00 0.00
4:52 am 04:52 Cloudy 65 18.3 59 15 81 81 Calm 30.04 1017 10 16 0.00 0.03
5:52 am 05:52 Cloudy 66 18.9 57 13.9 73 73 Calm 30.06 1018 10 16 0.00 0.00
6:52 am 06:52 Cloudy 66 18.9 58 14.4 75 75 SE 3 6 30.06 1018 10 16 0.00 0.00
7:52 am 07:52 Cloudy 66 18.9 59 15 78 78 ESE 5 7 30.06 1018 10 16 0.00 0.00
8:52 am 08:52 Cloudy 66 18.9 60 15.6 81 81 ESE 7 11 30.07 1018 10 16 0.00 0.00
9:52 am 09:52 Cloudy 67 19.4 60 15.6 79 79 SE 5 7 30.07 1018 10 16 0.00 0.00
10:52 am 10:52 Cloudy 68 20 60 15.6 76 76 SE 3 6 30.08 1019 10 16 0.00 0.00
11:52 am 11:52 Cloudy with Light Rain 68 20 61 16.1 78 78 ESE 5 7 30.09 1019 10 16 0.00 0.03
12:52 pm 12:52 Cloudy with Light Rain 68 20 62 16.7 81 81 E 8 13 30.08 1019 10 16 0.01 0.25
1:52 pm 13:52 Cloudy 71 21.7 60 15.6 68 68 E 10 17 30.06 1018 10 16 0.00 0.03
2:52 pm 14:52 Cloudy 72 22.2 59 15 64 64 ESE 10 17 30.05 1018 10 16 0.00 0.00
3:52 pm 15:52 Cloudy 71 21.7 61 16.1 71 71 E 8 13 30.04 1017 10 16 0.00 0.00
4:52 pm 16:52 Cloudy with Light Rain 70 21.1 62 16.7 76 76 ESE 8 13 30.05 1018 10 16 0.00 0.03
5:52 pm 17:52 Cloudy with Light Rain 68 20 64 17.8 87 87 E 7 11 30.04 1017 9 14 0.02 0.51
6:52 pm 18:52 Cloudy with Light Rain 68 20 65 18.3 90 90 ESE 8 13 30.02 1017 10 16 0.01 0.25
7:52 pm 19:52 Mostly Cloudy 67 19.4 66 18.9 97 97 SE 13 20 30.01 1016 10 16 0.00 0.03
8:52 pm 20:52 Cloudy with Light Rain 66 18.9 66 18.9 100 100 SSE 8 13 30.00 1016 10 16 0.00 0.03
9:52 pm 21:52 Cloudy with Light Rain 65 18.3 65 18.3 100 100 SSE 5 7 30.03 1017 10 16 0.03 0.76
10:52 pm 22:52 Cloudy with Light Rain 65 18.3 65 18.3 100 100 ESE 8 13 30.00 1016 10 16 0.06 1.52
11:52 pm 23:52 Cloudy 65 18.3 65 18.3 100 100 ESE 3 6 30.01 1016 10 16 0.00 0.03

Powered by AerisWeather